This is the latest recevied weather packets stored in our database for station/object KO6HRZ. If no packets are shown the sender has not sent any weather packets the latest 10 day(s).
| Time | Temp. | Humidity | Pressure | Rain* | Wind** | Luminosity | Snow |
|---|---|---|---|---|---|---|---|
| 1777704809 | 14.44° C | 83% | 1012.2 hPa | 0 mm | - | 0 W/m² | - |
| 1777704204 | 15° C | 81% | 1012.2 hPa | 0 mm | - | 0 W/m² | - |
| 1777703599 | 15° C | 82% | 1012.1 hPa | 0 mm | - | 0 W/m² | - |
| 1777702999 | 15.56° C | 81% | 1012.2 hPa | 0 mm | - | 0 W/m² | - |
| 1777702395 | 15.56° C | 81% | 1012.1 hPa | 0 mm | - | 0 W/m² | - |
| 1777701792 | 15.56° C | 81% | 1012.2 hPa | 0 mm | - | 0 W/m² | - |
| 1777701188 | 15.56° C | 80% | 1012.2 hPa | 0 mm | - | 0 W/m² | - |
| 1777700584 | 16.11° C | 81% | 1012.1 hPa | 0 mm | - | 0 W/m² | - |
| 1777699985 | 16.11° C | 80% | 1012.3 hPa | 0 mm | - | 0 W/m² | - |
| 1777699380 | 16.67° C | 79% | 1012.2 hPa | 0 mm | - | 0 W/m² | - |
| 1777698776 | 16.67° C | 80% | 1012.1 hPa | 0 mm | - | 0 W/m² | - |
| 1777698174 | 16.67° C | 80% | 1012.1 hPa | 0 mm | - | 0 W/m² | - |
| 1777697574 | 17.22° C | 79% | 1012 hPa | 0 mm | - | 0 W/m² | - |
| 1777696973 | 17.22° C | 79% | 1012.1 hPa | 0 mm | - | 0 W/m² | - |
| 1777696368 | 17.78° C | 78% | 1011.8 hPa | 0 mm | - | 0 W/m² | - |
| 1777695765 | 18.33° C | 78% | 1011.8 hPa | 0 mm | - | 0 W/m² | - |
| 1777695160 | 18.89° C | 77% | 1011.8 hPa | 0 mm | - | 0 W/m² | - |
| 1777694559 | 18.89° C | 75% | 1011.8 hPa | 0 mm | - | 0 W/m² | - |
| 1777693958 | 19.44° C | 75% | 1011.5 hPa | 0 mm | - | 0 W/m² | - |
| 1777693354 | 20° C | 73% | 1011.4 hPa | 0 mm | - | 0 W/m² | - |
| 1777692749 | 20° C | 72% | 1011.3 hPa | 0 mm | - | 0 W/m² | - |
| 1777692147 | 20.56° C | 71% | 1011.1 hPa | 0 mm | - | 0 W/m² | - |
| 1777691543 | 21.11° C | 69% | 1011 hPa | 0 mm | - | 0 W/m² | - |
| 1777690939 | 21.67° C | 68% | 1011 hPa | 0 mm | - | 1 W/m² | - |
| 1777690340 | 22.22° C | 68% | 1011.1 hPa | 0 mm | - | 4 W/m² | - |
* Rain latest hour (hover to see other rain measurements)
** Current wind speed in m/s (hover to see current wind gust speed)